Location: Unspecified
(42.3650°N, 71.1030°W)
Time: 10:38:18
(UTC+00:00)

Tiros 1 - Pass Details

Date: 01 July 2024
Orbit: 624 x 656 km, 48.4° (Epoch: 20 July)

Event Time Altitude Azimuth Distance (km) Brightness Sun altitude
Rises 08:50:47 0° 281° (WNW) 2,913 10.1 -4.0°
Reaches altitude 10° 08:54:40 10° 249° (WSW) 2,008 9.1 -3.4°
Maximum altitude 08:56:11 12° 229° (SW) 1,910 8.9 -3.2°
Drops below altitude 10° 08:57:42 10° 210° (SSW) 2,010 9.1 -3.0°
Sets 09:01:37 0° 177° (S) 2,922 10.2 -2.4°
